Weather in Doroginya

Russia / Kostroma Oblast     57°35′39″N   43°33′00″E
temp.,
°C
wind,
m/s
gust,
m/s
humid.,
%
clouds,
%
prec.,
mm/h
press.,
hPa
HPBL,
m
7 may, fri
fri700:00+11ssw5138479 0.2 1007947
03:00+9ssw41092100 0.5 1007649
06:00+9wsw4896100 3.6 1008592
09:00+8sw3692100 4.8 1009396
12:00+9ssw4686100 2.5 1010778
15:00+10sw3768100 3.1 10101109
18:00+11w485810 0.1 1011821
21:00+6sw11770 0.1 101310
8 may, sat
sat800:00+5s35834 0.0 101579
03:00+4s258385 0.0 101679
06:00+6sse3874100 0.0 1016211
09:00+12sse5745100 0.0 10151109
12:00+14sse573689 0.0 10141922
15:00+14s484995 0.0 10111766
18:00+12s3860100 0.0 1010541
21:00+10se41279100 0.1 1008674
9 may, sun
sun900:00+10se51392100 1.4 1005794
03:00+10sse51294100 2.6 1004718
06:00+10sse41194100 0.6 1004583
09:00+11s4993100 0.9 1005712
12:00+12ssw5985100 1.2 1007981
15:00+7w5790100 1.4 1011660
18:00+5nw41193100 0.0 1015794
21:00+5nw3989100 0.0 1018629
10 may, mon
mon1000:00+5nw4118799 0.0 1020573
03:00+2nw26960 0.0 1023148
06:00+4nw28780 0.0 1026260
09:00+10nnw35530 0.0 10271094
12:00+13nw34351 0.0 10281647
15:00+14nw33355 0.0 10281789
18:00+13wnw234951 0.0 1029252
21:00+8wsw116486 0.0 103010
11 may, tue
tue1100:00+9sw1163100 0.0 103110
03:00+7sw127034 0.0 103211
06:00+9sw126999 0.0 103282
09:00+13sw235391 0.0 1033474
12:00+17sw334752 0.0 1032844
15:00+18wsw234872 0.0 1031907
18:00+17wsw1263100 0.0 103196
21:00+12ssw1175100 0.0 103111